Change the Weather History Date:

Saturday, February 2, 2013

  Actual Average (KBLI) Record (KBLI)
Temperature  
Mean Temperature 40 °F 40 °F  
Max Temperature 42 °F 47 °F 58 °F (1962)
Min Temperature 39 °F 33 °F 5 °F (1950)
Degree Days  
Heating Degree Days 24 25  
Month to date heating degree days 50  
Cooling Degree Days 0 0  
Month to date cooling degree days 0  
Year to date cooling degree days 0  
Moisture  
Dew Point 40 °F    
Average Humidity 95    
Maximum Humidity 100    
Minimum Humidity 87    
Precipitation  
Precipitation 0.00 in 0.11 in 1.37 in (1974)
Month to date precipitation 0.23  
Year to date precipitation 4.90  
Sea Level Pressure  
Sea Level Pressure 30.31 in    
Wind  
Wind Speed 5 mph (North)    
Max Wind Speed 9 mph    
Max Gust Speed -    
Visibility 10 miles    
Events      
T = Trace of Precipitation, MM = Missing Value Source: NWS Daily Summary

Daily Weather History Graph

Daily Weather History Graph

Search for Another Location

Airport or City:

Trip Planner

Search our weather history database for the weather conditions in past years. The results will help you decide how hot, cold, wet, or windy it might be!

Date:

Astronomy

Feb. 02, 2013 Rise Set
Actual Time 7:39 AM PST 5:12 PM PST
Civil Twilight 7:05 AM PST 5:45 PM PST
Nautical Twilight 6:28 AM PST 6:23 PM PST
Astronomical Twilight 5:51 AM PST 7:00 PM PST
Moon 12:01 AM PST (2/2) 10:14 AM PST (2/2)
Length of Visible Light 10h 40m
Length of Day
9h 32m
Waning Gibbous, 58% of the Moon is Illuminated
Feb 2
Waning Gibbous
Feb 3
Last Quarter
Feb 9
New
Feb 17
First Quarter
Feb 25
Full

Hourly Weather History & Observations

Time (PST) Temp. Windchill Dew Point Humidity Pressure Visibility Wind Dir Wind Speed Gust Speed Precip Events Conditions
12:15 AM 42.8 °F 38.0 °F 41.0 °F 93% 30.40 in 8.0 mi North 8.1 mph - N/A   Overcast
12:35 AM 41.0 °F 36.4 °F 41.0 °F 100% 30.40 in 0.8 mi North 6.9 mph - N/A   Overcast
12:55 AM 42.8 °F 38.6 °F 42.8 °F 100% 30.40 in 5.0 mi NNW 6.9 mph - N/A   Overcast
1:15 AM 42.8 °F 39.3 °F 42.8 °F 100% 30.40 in 6.0 mi North 5.8 mph - N/A   Overcast
1:35 AM 42.8 °F 38.6 °F 42.8 °F 100% 30.40 in 7.0 mi North 6.9 mph - N/A   Overcast
1:55 AM 42.8 °F 38.6 °F 39.2 °F 87% 30.40 in 10.0 mi North 6.9 mph - N/A   Mostly Cloudy
2:15 AM 41.0 °F 38.0 °F 39.2 °F 93% 30.40 in 10.0 mi NNE 4.6 mph - N/A   Clear
2:35 AM 41.0 °F 39.0 °F 39.2 °F 93% 30.40 in 10.0 mi NE 3.5 mph - N/A   Clear
2:55 AM 41.0 °F 39.0 °F 39.2 °F 93% 30.40 in 10.0 mi NNE 3.5 mph - N/A   Clear
3:15 AM 41.0 °F 38.0 °F 39.2 °F 93% 30.39 in 10.0 mi NNE 4.6 mph - N/A   Clear
3:35 AM 41.0 °F 37.1 °F 39.2 °F 93% 30.38 in 10.0 mi NE 5.8 mph - N/A   Scattered Clouds
4:15 AM 41.0 °F 39.0 °F 41.0 °F 100% 30.38 in 8.0 mi NNE 3.5 mph - N/A   Overcast
4:35 AM 41.0 °F - 41.0 °F 100% 30.37 in 7.0 mi Calm Calm - N/A   Overcast
4:55 AM 41.0 °F 37.1 °F 41.0 °F 100% 30.37 in 9.0 mi North 5.8 mph - N/A   Overcast
5:15 AM 41.0 °F 35.8 °F 39.2 °F 93% 30.36 in 10.0 mi North 8.1 mph - N/A   Overcast
5:35 AM 39.2 °F 35.0 °F 39.2 °F 100% 30.36 in 6.0 mi North 5.8 mph - N/A   Overcast
5:55 AM 39.2 °F 35.0 °F 39.2 °F 100% 30.35 in 10.0 mi NNE 5.8 mph - N/A   Overcast
6:15 AM 41.0 °F 38.0 °F 41.0 °F 100% 30.35 in 10.0 mi NNE 4.6 mph - N/A   Overcast
6:35 AM 41.0 °F 38.0 °F 41.0 °F 100% 30.35 in 10.0 mi North 4.6 mph - N/A   Overcast
7:15 AM 39.2 °F 35.0 °F 39.2 °F 100% 30.34 in 10.0 mi North 5.8 mph - N/A   Overcast
7:35 AM 39.2 °F 35.0 °F 39.2 °F 100% 30.34 in 10.0 mi North 5.8 mph - N/A   Overcast
7:55 AM 41.0 °F 38.0 °F 39.2 °F 93% 30.34 in 10.0 mi North 4.6 mph - N/A   Overcast
8:15 AM 41.0 °F 39.0 °F 39.2 °F 93% 30.34 in 10.0 mi NNE 3.5 mph - N/A   Overcast
8:35 AM 41.0 °F 37.1 °F 39.2 °F 93% 30.34 in 10.0 mi North 5.8 mph - N/A   Overcast
8:55 AM 41.0 °F 35.2 °F 39.2 °F 93% 30.34 in 10.0 mi North 9.2 mph - N/A   Overcast
9:15 AM 41.0 °F 35.8 °F 39.2 °F 93% 30.34 in 10.0 mi North 8.1 mph - N/A   Overcast
9:35 AM 41.0 °F 35.8 °F 39.2 °F 93% 30.34 in 10.0 mi North 8.1 mph - N/A   Overcast
9:55 AM 39.2 °F 34.2 °F 39.2 °F 100% 30.34 in 10.0 mi NNW 6.9 mph - N/A   Overcast
10:15 AM 39.2 °F 33.6 °F 39.2 °F 100% 30.33 in 10.0 mi North 8.1 mph - N/A   Overcast
10:35 AM 39.2 °F 33.6 °F 39.2 °F 100% 30.33 in 10.0 mi North 8.1 mph - N/A   Overcast
10:55 AM 39.2 °F 34.2 °F 39.2 °F 100% 30.33 in 10.0 mi North 6.9 mph - N/A   Overcast
11:15 AM 39.2 °F 34.2 °F 39.2 °F 100% 30.33 in 10.0 mi North 6.9 mph - N/A   Overcast
11:35 AM 41.0 °F 37.1 °F 39.2 °F 93% 30.33 in 10.0 mi North 5.8 mph - N/A   Overcast
11:55 AM 41.0 °F 37.1 °F 39.2 °F 93% 30.32 in 10.0 mi North 5.8 mph - N/A   Overcast
12:15 PM 41.0 °F 38.0 °F 39.2 °F 93% 30.31 in 10.0 mi North 4.6 mph - N/A   Overcast
12:35 PM 41.0 °F 38.0 °F 39.2 °F 93% 30.31 in 10.0 mi NNE 4.6 mph - N/A   Overcast
1:15 PM 41.0 °F 37.1 °F 39.2 °F 93% 30.29 in 10.0 mi North 5.8 mph - N/A   Overcast
1:35 PM 41.0 °F 39.0 °F 39.2 °F 93% 30.28 in 10.0 mi NNE 3.5 mph - N/A   Overcast
2:15 PM 42.8 °F 41.1 °F 39.2 °F 87% 30.26 in 10.0 mi North 3.5 mph - N/A   Mostly Cloudy
2:35 PM 42.8 °F 39.3 °F 39.2 °F 87% 30.25 in 10.0 mi North 5.8 mph - N/A   Partly Cloudy
2:55 PM 41.0 °F - 39.2 °F 93% 30.25 in 10.0 mi Calm Calm - N/A   Clear
3:15 PM 42.8 °F - 39.2 °F 87% 30.24 in 10.0 mi Calm Calm - N/A   Partly Cloudy
3:55 PM 41.0 °F 36.4 °F 39.2 °F 93% 30.26 in 10.0 mi North 6.9 mph - N/A   Mostly Cloudy
4:15 PM 41.0 °F 35.8 °F 39.2 °F 93% 30.26 in 10.0 mi NNW 8.1 mph - N/A   Overcast
4:35 PM 39.2 °F 35.9 °F 39.2 °F 100% 30.25 in 10.0 mi North 4.6 mph - N/A   Overcast
4:55 PM 39.2 °F - 39.2 °F 100% 30.24 in 10.0 mi Calm Calm - N/A   Overcast
5:35 PM 41.0 °F - 39.2 °F 93% 30.25 in 10.0 mi Calm Calm - N/A   Overcast
5:55 PM 41.0 °F - 39.2 °F 93% 30.25 in 10.0 mi Calm Calm - N/A   Overcast
6:15 PM 41.0 °F - 39.2 °F 93% 30.26 in 10.0 mi Calm Calm - N/A   Overcast
6:35 PM 41.0 °F - 39.2 °F 93% 30.26 in 10.0 mi Calm Calm - N/A   Overcast
6:55 PM 41.0 °F - 39.2 °F 93% 30.26 in 10.0 mi Calm Calm - N/A   Overcast
7:15 PM 41.0 °F 39.0 °F 39.2 °F 93% 30.27 in 10.0 mi North 3.5 mph - N/A   Overcast
7:35 PM 41.0 °F - 39.2 °F 93% 30.27 in 10.0 mi Calm Calm - N/A   Overcast
7:55 PM 41.0 °F - 39.2 °F 93% 30.26 in 10.0 mi Calm Calm - N/A   Overcast
8:15 PM 41.0 °F - 39.2 °F 93% 30.25 in 10.0 mi Calm Calm - N/A   Overcast
8:35 PM 41.0 °F - 39.2 °F 93% 30.25 in 10.0 mi Calm Calm - N/A   Overcast
8:55 PM 41.0 °F - 39.2 °F 93% 30.24 in 10.0 mi Calm Calm - N/A   Overcast
9:15 PM 41.0 °F - 39.2 °F 93% 30.24 in 10.0 mi Calm Calm - N/A   Overcast
9:55 PM 41.0 °F - 39.2 °F 93% 30.25 in 10.0 mi Calm Calm - N/A   Overcast
10:15 PM 41.0 °F - 39.2 °F 93% 30.26 in 10.0 mi Calm Calm - N/A   Overcast
10:55 PM 41.0 °F - 39.2 °F 93% 30.25 in 10.0 mi Calm Calm - N/A   Overcast
11:15 PM 41.0 °F - 39.2 °F 93% 30.26 in 10.0 mi Calm Calm - N/A   Overcast
11:35 PM 41.0 °F - 39.2 °F 93% 30.26 in 10.0 mi Calm Calm - N/A   Overcast
11:55 PM 41.0 °F - 39.2 °F 93% 30.25 in 9.0 mi Calm Calm - N/A   Overcast